Location: ?
(35.3544°N, 139.4507°E)
Time: 02:09:58
(UTC+00:00)

Cosmos 2100 Rocket - Pass Details

Date: 03 August 2024
Orbit: 955 x 1000 km, 82.9° (Epoch: 18 September)

Event Time Altitude Azimuth Distance (km) Brightness Sun altitude
Exits shadow 13:24:37 60° 357° (N) 1,111 4.4 -33.7°
Drops below altitude 10° 13:29:39 10° 5° (N) 2,742 7.0 -34.2°
Sets 13:32:12 0° 6° (N) 3,700 7.8 -34.4°
